カタログに戻る

DELTA 1 DEB

運用中SSO
NORAD 21276·DEBRIS·🇺🇸 United States

打ち上げ Jun 12, 1975 から Vandenberg Space Force Base

Loading…

次のパス (今後24時間)

TLE

最新Source: Space-Track

元期: Sep 14, 2026, 03:22 UTC

1 21276U 75052M   26257.14035714  .00000004  00000-0  93354-4 0  9996
2 21276  99.9937 154.4979 0045319 254.9749 269.1724 13.35586181723607

AllMySatでDELTA 1 DEBをリアルタイム追跡

Download on the App Store